User: anonymous   Login
Location: Bullenkuhlen
(53.7689°N, 9.7495°E)
Time: 16:46:24
(UTC+00:00)
Language:

Cosmos 540 Rocket - Orbit

View from above orbital plane
View from above orbital plane
View from above satellite
View from above satellite

Ground track
Ground track

The orbit data is extracted from the following two-line orbital elements,

1  6324U 72104B   20195.68264791 +.00000128 +00000-0 +45765-4 0  9991
2  6324 074.0755 185.5464 0008392 028.5929 331.5687 14.43494398497265
Epoch (UTC): 13 July 2020 16:23:00
Eccentricity: 0.0008392
inclination: 74.0755°
perigee height: 741 km
apogee height: 753 km
right ascension of ascending node: 185.5464°
argument of perigee: 28.5929°
revolutions per day: 14.43494398
mean anomaly at epoch: 331.5687°
orbit number at epoch: 49726

The dashed part of the orbit path shows where the satellite is in the earth's shadow,  

DLR